Weather in Semarang

Indonesia     7°01′21″S   110°25′52″E
temp.,
°C
wind,
m/s
gust,
m/s
humid.,
%
clouds,
%
prec.,
mm/h
press.,
hPa
HPBL,
m
9 march, tue
tue901:00+25wsw1285100 0.2 101092
04:00+24s1185100 0.1 100971
07:00+25sse2286100 0.1 101198
10:00+29nw266898 0.1 10111175
13:00+29nw8116796 0.5 10091398
16:00+28wnw8107342 0.0 10081135
19:00+26w488370 0.0 1010342
22:00+25w3784100 1.2 1012270
10 march, wed
wed1001:00+25w3582100 1.8 1010155
04:00+25w358486 0.8 1009155
07:00+25w358493 1.1 1011305
10:00+29wnw687296 0.3 10121018
13:00+29nw8107293 0.4 10091118
16:00+28wnw797534 0.1 1008932
19:00+25w488351 0.1 1010374
22:00+25w358499 0.0 1012160
11 march, thu
thu1101:00+25w348299 0.0 1011124
04:00+24w248293 0.0 1010129
07:00+26w247786 0.0 1012219
10:00+30nw566780 0.0 10121094
13:00+30nw786948 0.1 1009909
16:00+29nw787019 0.6 1008891
19:00+25sw248658 5.2 101195
22:00+24sse4691100 3.2 1013189
12 march, fri
fri1201:00+24ese2292100 3.4 1011101
04:00+24w2291100 0.1 101195
07:00+25wsw138596 0.1 1012165
10:00+29nne227040 0.0 1012770
13:00+29nnw446830 0.3 1009729
16:00+28nw337324 1.7 1009393
19:00+24e119260 5.9 1011143
22:00+24nw3494100 11.3 1013156
13 march, sat
sat1301:00+24wnw2293100 11.8 1011111
04:00+23w129098 0.0 101063
07:00+25sse118399 0.0 101196
10:00+29e116794 0.0 1012730
13:00+30nnw326393 0.3 10091025
16:00+28nw347429 4.8 1008411
19:00+26wnw228325 6.9 101055
22:00+25wsw11842 0.0 101269